Location: Newark
(48.8833°N, 0.9236°W)
Time: 00:33:41
(UTC+00:00)

Transit 4A - Pass Details

Date: 24 November 2019
Orbit: 870 x 975 km, 66.8° (Epoch: 08 December)

Event Time Altitude Azimuth Distance (km) Brightness Sun altitude
Exits shadow 02:38:28 13° 47° (NE) 2,346 10.5 -46.1°
Drops below altitude 10° 02:39:33 10° 57° (ENE) 2,551 10.7 -46.0°
Sets 02:43:01 0° 78° (ENE) 3,474 11.6 -45.4°
